This is the latest recevied weather packets stored in our database for station/object W3BRL. If no packets are shown the sender has not sent any weather packets the latest 10 day(s).
| Time | Temp. | Humidity | Pressure | Rain* | Wind** | Luminosity | Snow |
|---|---|---|---|---|---|---|---|
| 1777392549 | 14.44° C | 81% | 1012.4 hPa | 0 mm | - | 165 W/m² | - |
| 1777392245 | 14.44° C | 81% | 1012.2 hPa | 0 mm | - | 134 W/m² | - |
| 1777391940 | 13.89° C | 81% | 1012.3 hPa | 0 mm | - | 116 W/m² | - |
| 1777391635 | 13.89° C | 81% | 1012 hPa | 0 mm | - | 154 W/m² | - |
| 1777391332 | 13.89° C | 81% | 1012.1 hPa | 0 mm | - | 136 W/m² | - |
| 1777391029 | 13.89° C | 82% | 1012.2 hPa | 0 mm | - | 127 W/m² | - |
| 1777390724 | 13.89° C | 82% | 1012.1 hPa | 0 mm | - | 125 W/m² | - |
| 1777390421 | 13.89° C | 82% | 1012.4 hPa | 0 mm | - | 115 W/m² | - |
| 1777390117 | 13.89° C | 82% | 1012.3 hPa | 0 mm | - | 123 W/m² | - |
| 1777389814 | 13.33° C | 83% | 1012.1 hPa | 0 mm | - | 123 W/m² | - |
| 1777389512 | 13.33° C | 83% | 1012.1 hPa | 0 mm | - | 141 W/m² | - |
| 1777389208 | 13.33° C | 83% | 1012.3 hPa | 0 mm | - | 135 W/m² | - |
| 1777388906 | 13.33° C | 83% | 1012.2 hPa | 0 mm | - | 134 W/m² | - |
| 1777388602 | 13.33° C | 83% | 1012.2 hPa | 0 mm | - | 135 W/m² | - |
| 1777388299 | 12.78° C | 84% | 1012.3 hPa | 0 mm | - | 156 W/m² | - |
| 1777387999 | 12.78° C | 85% | 1012.3 hPa | 0 mm | - | 133 W/m² | - |
| 1777387696 | 12.78° C | 85% | 1012.4 hPa | 0 mm | - | 127 W/m² | - |
| 1777387392 | 12.78° C | 85% | 1012.3 hPa | 0 mm | - | 111 W/m² | - |
| 1777387092 | 12.78° C | 85% | 1012.2 hPa | 0 mm | - | 121 W/m² | - |
| 1777386788 | 12.22° C | 86% | 1012 hPa | 0 mm | - | 87 W/m² | - |
| 1777386485 | 12.22° C | 87% | 1012 hPa | 0 mm | - | 131 W/m² | - |
| 1777386182 | 12.22° C | 87% | 1012.1 hPa | 0 mm | - | 131 W/m² | - |
| 1777385879 | 12.22° C | 87% | 1012.4 hPa | 0 mm | - | 56 W/m² | - |
| 1777385576 | 11.67° C | 88% | 1012.2 hPa | 0 mm | - | 74 W/m² | - |
| 1777385274 | 11.67° C | 88% | 1012.2 hPa | 0 mm | - | 69 W/m² | - |
* Rain latest hour (hover to see other rain measurements)
** Current wind speed in m/s (hover to see current wind gust speed)